Simultaneous Nadir Overpasses (SNOs) Predictions

Prediction of SNOs between GOES-14 and AQUA Satellite Orbit:

Table of predicted SNOs for the next 14.0 days since TLE Epoch: 5/7/2022
Index Date Time (GOES-14) GOES-14 Lat,Lon AQUA Lat,Lon Distance(km) Time Diff (sec)
1 05/08/2022 08:23:50 0.09,-104.44 -0.58,-101.24 363.74 80
2 05/08/2022 20:45:11 -0.07,-104.58 -0.46,-106.42 209.67 80
3 05/10/2022 20:30:03 -0.08,-104.57 0.16,-103.38 134.95 80
4 05/11/2022 08:51:14 0.06,-104.42 0.95,-108.52 466.28 80
5 05/12/2022 20:17:35 -0.09,-104.57 0.81,-100.35 479.82 80
6 05/13/2022 08:38:46 0.07,-104.42 0.30,-105.49 120.94 80
7 05/15/2022 08:28:58 0.06,-104.42 -0.37,-102.46 224.09 80
8 05/15/2022 20:50:18 -0.04,-104.59 -0.70,-107.63 346.04 80
9 05/17/2022 20:35:09 -0.04,-104.58 -0.06,-104.60 2.43 80
10 05/19/2022 20:22:40 -0.05,-104.57 0.60,-101.56 342.49 80
11 05/20/2022 08:43:50 0.03,-104.39 0.49,-106.70 261.66 80
